Theta_e
315 317 321 325 320 317 319 322 316 319 319 319 319 319 318 320 320 318 323 323 322 320 316 316 317 319 325 327 327 327 325 323 323 323 323 324 325 325 323 323 323 323 323 322 321 321 322 322 322
316 318 322 326 320 319 319 318 317 316 318 319 319 319 318 319 320 321 321 321 321 317 315 314 314 314 315 316 315 316 316 319 322 321 319 319 319 319 320 321 320 319 317 316 315 314 314 314 314
317 320 325 318 316 319 318 316 315 317 318 318 318 319 319 318 319 319 320 320 320 320 314 314 314 314 313 313 313 313 313 315 316 315 314 314 314 314 313 313 312 312 311 311 310 310 309 308 309
318 319 319 317 320 318 317 315 315 315 317 317 317 316 317 318 318 319 318 318 318 318 314 314 313 313 313 313 313 313 313 313 313 312 312 311 311 311 310 309 307 306 304 303 303 304 304 304 304
320 322 317 317 315 313 314 316 316 314 316 317 318 316 316 317 318 316 316 317 317 316 314 313 313 314 313 313 312 311 310 310 309 309 308 307 305 304 303 303 303 303 303 303 303 303 303 303 303
319 318 316 317 316 316 315 318 316 315 316 316 316 315 316 317 317 317 315 316 317 316 314 313 313 313 312 310 309 308 308 308 308 307 306 304 304 303 302 303 303 303 303 304 304 304 304 304 303
318 315 316 315 317 317 316 318 315 315 315 316 317 314 316 317 317 316 315 315 316 315 314 313 313 311 310 309 308 308 308 307 306 305 305 304 303 303 303 303 303 304 305 306 307 307 306 305 305
319 314 317 316 317 318 317 317 317 317 315 318 317 313 316 318 317 315 314 314 315 315 314 313 312 311 310 308 308 308 307 306 306 305 304 303 303 303 304 304 305 305 306 306 306 306 306 304 303
318 311 313 315 318 317 317 316 317 317 317 317 317 317 317 317 316 315 314 314 315 315 315 314 312 311 309 308 307 307 307 306 305 303 302 303 303 303 304 304 305 305 305 306 306 306 306 305 304
317 310 312 313 317 316 316 315 317 316 315 316 317 317 317 317 317 316 316 315 315 315 315 314 313 310 309 309 308 307 307 306 305 303 303 303 303 303 303 304 304 305 305 305 305 305 305 305 304
317 314 314 318 318 317 316 315 317 315 312 316 317 318 317 316 316 316 316 316 316 315 314 314 313 311 309 309 308 307 307 306 304 303 303 303 303 303 303 303 304 304 304 304 304 304 304 305 305
316 317 317 318 319 317 315 316 315 315 317 318 318 318 317 317 316 316 316 316 315 314 314 313 312 311 310 308 308 306 306 306 304 304 303 303 303 303 303 303 303 303 303 303 304 304 304 304 305
315 316 318 319 318 318 316 315 313 315 317 316 317 317 317 317 317 316 316 315 315 314 314 313 312 311 310 308 307 306 305 305 304 303 303 303 302 302 303 303 303 303 303 303 303 303 304 304 304
316 316 316 317 317 316 315 314 315 317 317 316 316 316 316 316 317 316 316 316 316 315 314 313 312 311 310 309 307 307 306 304 304 303 302 302 302 302 302 302 303 302 303 303 303 303 303 304 304
316 314 312 315 315 313 314 313 311 317 316 316 316 316 316 316 316 317 317 317 317 316 316 314 312 311 309 308 307 306 306 304 304 304 303 302 302 302 302 302 302 302 303 302 302 303 302 303 303
313 312 313 311 311 313 314 314 312 316 315 316 316 316 316 316 316 316 316 316 316 316 315 315 312 312 310 309 307 306 305 304 304 303 302 301 301 300 301 301 302 302 302 301 301 301 301 301 302
309 309 309 311 312 312 311 313 312 316 315 315 317 317 316 316 316 316 316 316 316 316 315 314 313 312 311 309 307 306 305 305 304 303 302 300 300 300 300 300 301 301 301 301 301 301 300 301 301
309 309 310 311 312 311 311 311 312 315 314 314 315 316 316 317 317 318 317 316 316 316 316 315 313 312 310 308 306 305 304 304 303 302 301 300 299 299 299 299 300 300 300 300 300 300 299 299 300
310 309 310 310 311 312 311 312 313 314 312 311 314 315 316 316 317 317 317 317 316 315 315 315 313 312 310 308 306 305 305 305 303 302 300 300 299 298 298 299 299 300 300 300 299 299 298 298 298
310 311 311 311 311 310 311 312 312 311 313 314 312 314 315 315 316 317 316 316 315 316 316 315 314 313 311 309 308 306 307 306 304 303 301 300 299 298 298 298 298 298 299 299 299 298 297 297 297
310 310 311 311 311 309 309 312 310 309 311 313 314 314 313 314 315 316 317 316 315 315 315 315 314 313 311 309 307 306 304 303 302 302 301 300 298 297 297 297 297 298 298 298 298 297 297 296 295
312 310 311 312 311 312 310 313 312 310 310 310 312 313 313 314 316 316 316 315 315 315 315 314 314 313 311 309 308 307 307 306 306 305 303 300 298 297 297 296 296 297 297 297 297 297 296 296 295
313 310 310 310 309 310 310 310 313 309 310 311 311 313 315 316 316 316 316 315 315 314 314 314 313 312 311 309 308 307 306 305 306 305 303 300 299 298 297 296 296 296 296 296 296 296 296 296 295
309 311 310 306 307 311 311 311 313 309 310 310 310 313 315 316 316 316 313 315 315 314 314 313 312 311 310 309 308 307 306 306 305 304 303 302 300 298 297 296 295 295 295 295 295 295 295 295 294
310 310 311 310 310 313 309 309 313 310 310 309 310 313 316 316 316 315 314 314 313 314 313 313 311 311 310 309 308 306 306 306 305 305 304 303 301 300 298 296 295 294 294 294 294 294 294 294 293
308 311 312 310 312 313 306 310 313 309 310 312 312 313 315 316 315 313 314 314 313 313 313 312 310 310 310 309 308 307 306 306 306 305 304 303 301 300 298 297 296 294 293 293 294 294 294 293 292
309 310 310 310 300 306 310 310 311 309 307 307 308 312 311 313 313 313 313 313 313 313 312 312 311 310 309 309 307 307 306 306 306 305 304 303 302 299 297 296 295 294 293 293 293 293 293 292 291
308 308 311 309 311 311 310 310 312 311 310 309 309 306 311 311 311 311 312 312 312 312 311 311 311 310 310 309 308 307 307 307 306 305 305 303 302 299 296 295 294 293 292 292 292 292 291 290 290
306 308 307 308 312 315 316 314 314 313 307 307 306 309 312 311 311 311 311 311 310 310 310 310 310 309 309 309 309 308 308 307 304 304 303 303 301 299 297 295 293 293 292 291 291 291 291 290 289
306 308 309 312 313 310 313 314 312 311 308 306 306 309 310 311 311 311 311 310 310 310 310 310 310 310 310 309 309 309 308 307 305 303 303 302 301 299 296 295 293 292 292 291 291 290 290 289 288
Wind_Speed
4 4 3 0 4 4 4 5 2 3 2 2 5 4 7 5 5 4 5 12 13 18 18 17 17 15 15 15 14 13 11 10 9 11 10 8 6 7 7 5 5 5 6 7 8 8 9 8 8
4 4 2 2 4 2 5 5 6 5 6 11 8 7 2 4 5 3 12 14 16 18 18 17 16 16 16 14 13 12 12 11 10 10 9 8 8 8 7 6 7 8 8 9 9 11 11 11 11
4 3 1 4 3 4 4 5 5 3 9 7 5 3 4 4 10 6 12 13 15 19 18 17 17 17 15 15 13 12 12 12 12 10 10 9 8 8 8 7 7 8 8 8 8 9 9 10 10
4 2 3 3 6 7 5 5 6 7 4 7 6 2 4 9 3 7 14 14 16 21 20 18 18 16 15 14 13 13 13 13 11 10 8 7 7 6 6 6 6 7 7 7 6 6 6 7 7
4 2 2 2 5 6 6 6 17 6 5 8 10 4 5 9 13 9 10 15 18 23 21 20 19 18 17 16 15 14 13 11 10 8 7 7 7 6 5 5 5 4 4 3 3 4 5 6 6
2 2 2 3 5 5 5 12 11 6 6 6 6 3 5 9 15 14 13 16 18 22 22 21 20 19 18 17 15 14 13 12 11 10 9 8 7 6 5 5 4 3 1 2 3 5 6 7 7
3 3 4 4 6 6 5 15 7 9 9 8 5 6 6 15 14 15 15 17 20 23 23 22 21 21 20 18 16 15 14 14 12 11 10 8 7 6 5 4 2 1 2 3 5 7 8 9 9
0 4 3 4 3 6 2 10 3 10 9 6 12 7 6 12 17 18 19 20 22 24 25 24 23 22 22 20 18 17 16 15 14 12 11 10 9 8 6 4 2 3 4 5 7 9 10 11 10
2 3 3 5 3 5 1 3 4 4 5 10 13 13 9 6 18 21 23 25 26 27 28 28 27 26 24 22 20 19 18 16 15 14 14 13 12 10 9 7 7 6 6 7 9 10 12 13 12
4 3 8 6 2 4 3 7 6 4 6 9 17 22 21 15 19 25 27 28 28 29 30 31 30 29 28 26 24 22 21 19 18 16 15 14 13 12 11 10 9 8 7 8 8 9 11 12 13
6 6 6 9 7 6 4 5 8 7 7 19 23 28 26 23 24 27 29 30 28 27 30 30 32 31 30 28 26 25 24 22 20 19 18 17 15 14 13 11 10 9 9 8 9 10 11 13 14
4 15 16 12 16 7 4 5 7 19 29 18 15 16 23 29 32 32 32 32 32 32 31 30 32 33 33 30 29 27 25 24 23 22 21 19 17 15 14 13 12 11 9 10 10 12 12 14 15
7 7 18 25 21 17 14 18 11 26 32 24 27 24 24 25 30 33 33 33 33 35 35 33 33 34 34 34 32 31 28 27 24 24 22 21 19 17 16 14 13 12 12 12 12 12 13 13 14
4 8 14 15 18 16 6 13 5 38 31 28 31 37 36 37 38 34 36 39 39 36 37 36 36 36 36 36 35 33 30 28 28 26 24 22 21 19 17 15 15 14 13 13 13 13 13 13 13
8 9 9 16 16 11 8 13 12 49 34 33 29 30 33 40 37 40 39 40 40 39 38 39 38 38 38 37 36 35 33 32 30 28 26 25 23 22 21 19 17 16 15 15 15 15 15 14 14
4 3 4 1 5 5 12 18 15 26 22 33 32 32 32 35 38 39 39 38 38 39 42 39 40 40 40 39 38 37 36 34 31 30 28 27 26 25 23 21 19 17 16 16 15 15 14 14 14
2 6 8 12 14 6 8 11 11 18 18 28 32 33 32 37 39 39 38 39 37 37 40 41 41 42 42 41 38 38 37 36 34 33 32 30 30 27 25 23 21 19 18 16 15 16 16 16 16
8 6 6 8 3 4 7 15 15 30 15 22 29 33 35 37 43 41 41 40 39 39 41 41 41 43 42 41 38 38 38 39 38 36 35 33 32 30 28 26 24 21 19 17 16 16 16 17 18
2 6 9 8 6 5 10 17 20 29 18 24 35 42 45 44 50 43 44 44 43 44 45 46 44 45 45 45 43 43 44 44 43 40 37 36 34 32 30 28 26 23 20 19 18 16 16 16 18
11 19 20 18 17 6 16 24 14 12 24 32 32 40 49 50 53 53 53 51 44 42 44 48 49 48 46 46 46 46 44 44 43 41 39 38 37 34 32 30 28 24 22 20 18 16 16 17 16
16 14 18 18 6 4 11 26 14 10 26 37 40 46 45 48 53 53 52 49 41 39 41 46 51 49 47 46 47 47 44 43 43 44 43 42 39 36 34 32 30 27 24 22 19 17 16 16 16
20 13 16 14 2 9 3 23 2 7 15 17 31 37 45 48 50 53 55 47 37 37 39 43 49 50 47 47 47 50 49 45 46 46 45 43 40 38 36 34 32 29 26 23 20 18 17 17 16
16 6 7 3 4 4 7 5 4 10 10 17 22 36 44 46 46 48 46 39 33 34 36 42 47 50 48 47 46 46 47 45 43 44 44 42 40 40 38 36 34 32 29 26 23 20 19 19 18
1 2 3 4 3 5 13 11 32 7 11 9 12 34 43 43 44 50 35 23 28 32 35 42 47 49 47 44 44 46 45 44 44 45 43 42 42 41 40 38 36 34 31 28 24 22 20 19 18
4 5 3 3 0 9 3 8 29 6 6 10 16 29 37 41 42 43 31 25 28 32 37 43 45 47 45 44 44 45 44 44 43 43 43 43 43 44 44 40 39 38 33 30 27 24 22 19 19
10 12 6 8 10 16 6 8 15 12 14 26 32 39 40 44 42 34 26 22 25 29 35 40 42 45 44 44 44 43 44 44 43 43 43 43 43 42 40 38 37 37 34 31 28 26 23 21 20
3 6 15 5 1 1 6 15 16 13 10 9 16 30 36 43 43 30 25 24 25 28 33 35 39 41 41 41 42 45 46 46 46 45 43 42 42 41 38 37 37 37 36 33 30 27 24 22 22
7 1 1 2 3 7 8 7 13 20 10 14 14 16 35 35 36 26 25 24 24 26 28 30 33 39 38 39 42 44 46 47 47 47 45 44 42 41 39 37 38 38 36 34 31 28 25 23 22
1 4 4 1 4 15 18 12 30 24 10 8 10 13 20 16 15 18 22 23 22 21 24 27 31 35 38 38 37 39 43 48 51 51 48 45 42 40 38 38 39 39 37 35 32 29 27 25 24
7 11 16 12 16 11 16 19 28 21 7 8 9 19 15 18 20 18 18 20 19 18 24 25 27 31 32 34 38 40 44 46 49 52 50 47 44 41 38 38 38 39 38 36 33 30 28 26 25
Wind_Direction
203 212 227 260 43 60 271 266 228 172 112 138 141 170 177 136 164 205 179 176 186 187 194 196 203 209 205 203 196 200 204 203 204 207 215 223 221 226 234 238 248 259 268 278 290 301 299 298 303
190 219 216 104 92 48 270 256 192 204 158 133 122 114 110 210 182 198 176 184 193 191 191 194 197 205 208 212 209 204 210 212 212 218 220 225 232 243 248 251 255 262 265 269 278 284 287 290 294
185 190 223 101 125 190 227 237 212 193 166 179 147 175 180 220 207 213 202 206 195 193 192 193 197 200 204 204 203 205 211 212 219 227 231 235 236 234 238 249 259 263 268 277 280 282 286 286 286
175 169 74 98 241 257 235 240 195 156 187 187 162 193 228 206 186 213 207 205 193 191 195 196 200 204 207 213 211 210 213 218 220 222 224 225 227 228 227 225 231 248 264 268 271 275 279 286 288
160 121 66 278 250 254 249 221 181 184 188 188 178 228 232 220 217 205 211 207 200 193 197 200 204 206 211 213 210 212 214 217 216 212 210 213 217 223 225 228 229 229 237 263 290 303 308 310 310
115 103 77 240 245 251 264 201 176 209 211 180 188 173 239 225 216 216 214 210 204 203 202 205 208 210 211 209 207 210 214 217 218 219 219 221 219 218 210 208 206 212 239 298 320 323 325 326 323
119 92 224 240 264 293 224 187 196 204 187 216 201 172 237 223 208 212 214 212 208 206 211 212 213 210 210 210 208 208 210 212 212 213 215 218 221 216 207 212 208 256 329 329 332 329 330 332 332
191 99 281 251 251 271 239 173 225 206 222 216 200 226 250 242 206 205 212 215 212 213 214 217 217 215 214 213 211 210 211 210 211 212 213 211 207 210 216 227 256 291 297 308 321 325 331 335 335
200 66 244 253 228 263 207 239 227 232 219 208 210 240 241 240 205 207 212 213 215 216 218 220 220 218 217 217 217 216 216 214 212 208 205 207 210 213 214 220 233 251 275 296 312 325 330 330 331
163 153 226 219 246 247 254 228 257 229 229 232 232 239 244 238 218 216 218 220 222 221 221 222 221 220 219 219 220 219 219 217 214 211 214 213 216 217 217 225 239 255 275 297 310 320 321 322 323
192 217 220 259 261 256 235 246 243 220 247 238 240 247 241 237 231 228 230 232 239 231 227 226 225 223 223 222 220 220 220 218 215 214 215 217 218 222 231 241 252 266 280 292 300 303 305 310 315
219 243 240 266 279 272 229 256 241 230 250 261 272 268 255 243 241 242 241 242 240 237 235 232 229 227 225 223 224 224 222 221 219 218 219 221 224 229 236 244 253 262 269 274 280 287 298 310 313
231 252 256 257 252 270 269 252 243 263 265 259 258 255 248 249 252 250 251 249 244 241 240 236 233 231 228 225 224 223 222 222 221 222 222 224 226 231 238 245 251 257 265 273 282 292 300 305 308
278 273 270 273 264 260 216 275 253 268 278 267 255 251 252 254 255 253 249 247 245 245 243 240 237 235 230 230 227 227 225 223 223 224 226 228 231 235 242 248 253 258 262 270 278 287 292 297 305
288 304 313 261 248 236 206 286 229 265 268 269 259 256 252 252 251 252 255 255 255 251 246 243 240 238 234 232 230 228 227 226 226 228 229 231 235 238 241 245 249 254 263 270 278 287 293 303 311
326 329 314 301 148 241 161 257 256 270 262 265 265 262 250 250 252 255 254 254 256 251 247 244 240 238 236 234 231 229 228 229 229 230 232 232 235 236 238 242 248 252 257 265 275 283 288 295 305
284 247 225 303 199 160 181 243 274 259 246 257 263 265 261 257 254 254 251 249 252 257 254 245 241 239 236 233 230 230 230 231 230 229 231 232 234 236 239 241 243 248 255 265 274 280 287 295 305
222 221 253 241 249 190 230 247 264 268 253 259 266 267 267 267 260 256 255 256 251 254 254 249 243 240 234 233 228 229 228 230 230 230 230 232 234 235 237 239 243 247 253 261 270 279 288 297 303
195 225 233 248 249 206 235 241 247 266 261 248 260 265 263 262 267 262 256 257 257 253 249 246 239 239 231 226 224 225 227 227 228 229 230 232 234 236 238 240 242 245 251 259 265 274 285 295 302
243 253 261 269 261 230 266 259 245 247 263 266 253 255 262 265 269 268 263 263 260 257 253 245 239 238 234 229 227 228 229 230 232 232 232 233 234 236 238 240 243 244 248 255 263 273 282 291 301
232 234 252 255 297 233 295 278 234 241 246 263 265 262 262 260 266 267 264 264 264 256 248 242 240 237 233 229 225 228 229 230 230 230 232 233 234 235 237 239 241 242 247 252 257 266 278 288 299
263 218 251 260 278 274 146 295 163 210 232 248 261 262 261 266 266 266 264 263 255 255 250 243 239 235 231 229 227 228 229 228 230 232 234 234 234 236 238 238 240 242 244 249 255 262 272 280 287
258 187 228 229 201 341 184 252 250 217 235 247 252 259 264 268 269 265 262 264 261 251 245 240 235 231 228 228 231 231 232 234 236 236 236 236 238 239 239 239 240 240 242 245 251 258 265 272 278
179 86 50 51 98 278 233 192 283 197 210 235 253 256 265 269 266 268 272 257 248 242 238 237 231 228 228 229 231 232 232 234 234 235 235 236 239 239 238 238 238 239 239 242 248 253 260 268 275
171 102 293 326 122 230 172 175 256 261 258 223 235 254 265 267 267 263 270 239 231 233 235 235 229 226 227 228 231 233 233 236 236 238 239 238 237 238 238 238 238 237 237 239 243 250 256 263 268
206 199 189 204 247 261 110 229 261 226 237 242 248 253 266 264 268 267 250 235 235 226 234 235 230 226 227 229 232 232 232 235 237 239 241 242 243 244 244 241 241 239 237 238 241 246 253 259 265
196 191 231 288 355 21 261 273 298 269 271 293 273 270 266 264 270 260 231 228 231 228 232 236 233 229 231 234 235 234 234 235 237 240 240 243 245 245 244 242 242 239 236 237 240 244 249 254 260
194 173 84 214 204 235 225 243 260 275 289 277 289 278 283 284 273 253 238 236 226 233 236 236 236 236 236 235 236 239 240 241 241 242 242 242 245 245 242 240 239 237 237 237 239 242 246 251 258
242 245 227 244 198 256 264 255 261 277 266 273 280 332 351 331 318 272 248 237 235 235 238 236 236 233 236 237 241 244 247 247 245 245 244 244 245 245 241 238 236 236 237 237 238 242 246 251 256
220 248 238 239 246 238 254 254 268 271 256 276 264 292 314 326 320 297 270 254 247 240 239 236 234 235 238 241 242 245 247 248 248 248 247 246 246 244 240 237 234 235 237 236 238 243 249 252 256